Weather History for Mason, MI

Change the Weather History Date:

Wednesday, September 26, 2012

  Actual Average (KLAN) Record (KLAN)
Temperature  
Mean Temperature 62 °F 58 °F  
Max Temperature 69 °F 68 °F 89 °F (1998)
Min Temperature 54 °F 47 °F 27 °F (1966)
Degree Days  
Heating Degree Days 4 8  
Month to date heating degree days 116  
Since 1 July heating degree days 151  
Cooling Degree Days 0 1  
Month to date cooling degree days 58  
Year to date cooling degree days 615  
Growing Degree Days 12 (Base 50)    
Moisture  
Dew Point 53 °F    
Average Humidity 79    
Maximum Humidity 96    
Minimum Humidity 45    
Precipitation  
Precipitation 0.00 in 0.12 in 1.56 in (1933)
Month to date precipitation 3.06  
Year to date precipitation 24.15  
Snow  
Snow 0.00 in 0.00 in T in (1942)
Month to date snowfall 0.0  
Since 1 July snowfall 0.0  
Since 1 September snowfall 0.0  
Snow Depth -    
Sea Level Pressure  
Sea Level Pressure 29.99 in    
Wind  
Wind Speed 2 mph (NNE)    
Max Wind Speed 9 mph    
Max Gust Speed -    
Visibility 6 miles    
Events Fog    
T = Trace of Precipitation, MM = Missing Value Source: NWS Daily Summary

Daily Weather History Graph

Daily Weather History Graph

Search for Another Location

Airport:

Trip Planner

Search our weather history database for the weather conditions in past years. The results will help you decide how hot, cold, wet, or windy it might be!

Date:

Astronomy

Sep. 26, 2012 Rise Set
Actual Time 7:29 AM EDT 7:27 PM EDT
Civil Twilight 7:01 AM EDT 7:55 PM EDT
Nautical Twilight 6:28 AM EDT 8:27 PM EDT
Astronomical Twilight 5:55 AM EDT 9:01 PM EDT
Moon 5:29 PM EDT (9/26) 3:51 AM EDT (9/26)
Length of Visible Light 12h 53m
Length of Day
11h 57m
Waxing Gibbous, 88% of the Moon is Illuminated
Sep 26
Waxing Gibbous
Sep 29
Full
Oct 8
Last Quarter
Oct 15
New
Oct 21
First Quarter

Hourly Weather History & Observations

Time (EDT) Temp. Dew Point Humidity Pressure Visibility Wind Dir Wind Speed Gust Speed Precip Events Conditions
12:33 AM 56.7 °F 54.7 °F 93% 29.89 in 4.0 mi Calm Calm - N/A   Clear
12:52 AM 56.5 °F 54.7 °F 94% 29.89 in 3.0 mi Calm Calm - N/A   Clear
1:12 AM 57.6 °F 55.9 °F 94% 29.89 in 2.5 mi Calm Calm - N/A   Clear
1:33 AM 58.1 °F 56.5 °F 94% 29.89 in 2.5 mi Calm Calm - N/A   Clear
1:52 AM 57.9 °F 56.3 °F 94% 29.89 in 2.0 mi Calm Calm - N/A   Scattered Clouds
2:12 AM 56.7 °F 55.2 °F 95% 29.89 in 0.2 mi Calm Calm - N/A Fog Fog
2:33 AM 56.7 °F 55.4 °F 96% 29.90 in 0.2 mi Calm Calm - N/A Fog Fog
2:52 AM 56.8 °F 55.4 °F 95% 29.91 in 1.5 mi Calm Calm - N/A   Overcast
3:12 AM 57.4 °F 56.1 °F 96% 29.91 in 1.5 mi Calm Calm - N/A   Overcast
3:33 AM 57.4 °F 55.9 °F 95% 29.90 in 1.2 mi Calm Calm - N/A   Overcast
3:52 AM 58.3 °F 57.2 °F 96% 29.91 in 0.8 mi Calm Calm - N/A   Overcast
4:12 AM 59.0 °F 57.4 °F 94% 29.90 in 0.5 mi Calm Calm - N/A Fog Fog
4:33 AM 58.8 °F 57.4 °F 95% 29.90 in 0.2 mi Calm Calm - N/A Fog Fog
4:52 AM 58.6 °F 57.4 °F 96% 29.89 in 0.2 mi Calm Calm - N/A Fog Fog
5:12 AM 59.0 °F 57.7 °F 96% 29.89 in 0.2 mi SSE 3.5 mph - N/A Fog Fog
5:33 AM 59.4 °F 58.1 °F 96% 29.89 in 0.2 mi Calm Calm - N/A Fog Fog
5:52 AM 60.3 °F 59.0 °F 96% 29.89 in 0.5 mi Calm Calm - N/A Fog Fog
6:13 AM 60.8 °F 59.4 °F 95% 29.89 in 1.0 mi Calm Calm - N/A   Overcast
6:32 AM 60.1 °F 58.8 °F 96% 29.91 in 0.5 mi NNE 3.5 mph - N/A Fog Fog
6:52 AM 59.4 °F 58.1 °F 96% 29.91 in 0.5 mi NNE 3.5 mph - N/A Fog Fog
7:13 AM 59.5 °F 58.3 °F 96% 29.92 in 0.8 mi North 3.5 mph - N/A   Overcast
7:32 AM 58.6 °F 57.4 °F 96% 29.92 in 1.0 mi North 5.8 mph - N/A   Overcast
7:52 AM 58.1 °F 56.8 °F 96% 29.93 in 0.5 mi Calm Calm - N/A Fog Fog
8:32 AM 58.1 °F 56.8 °F 96% 29.94 in 0.5 mi NE 3.5 mph - N/A Fog Fog
8:52 AM 58.3 °F 57.2 °F 96% 29.94 in 0.5 mi Calm Calm - N/A Fog Fog
9:13 AM 58.1 °F 57.0 °F 96% 29.95 in 2.0 mi Calm Calm - N/A   Overcast
9:32 AM 58.1 °F 56.8 °F 96% 29.96 in 2.5 mi NNE 3.5 mph - N/A   Overcast
9:52 AM 58.6 °F 57.2 °F 95% 29.96 in 2.5 mi ENE 3.5 mph - N/A   Overcast
10:13 AM 58.6 °F 57.2 °F 95% 29.97 in 3.0 mi North 4.6 mph - N/A   Overcast
10:32 AM 58.3 °F 56.5 °F 94% 29.98 in 4.0 mi North 6.9 mph - N/A   Overcast
10:52 AM 57.7 °F 55.8 °F 93% 29.98 in 5.0 mi North 5.8 mph - N/A   Overcast
11:13 AM 57.9 °F 55.4 °F 91% 29.99 in 7.0 mi North 6.9 mph - N/A   Overcast
11:32 AM 57.7 °F 54.9 °F 90% 29.99 in 7.0 mi NNE 8.1 mph - N/A   Overcast
11:52 AM 58.1 °F 54.9 °F 89% 30.00 in 10.0 mi North 6.9 mph - N/A   Overcast
12:13 PM 58.1 °F 54.9 °F 89% 30.01 in 10.0 mi North 9.2 mph - N/A   Overcast
12:32 PM 58.8 °F 54.9 °F 87% 30.01 in 10.0 mi NNE 3.5 mph - N/A   Overcast
12:53 PM 59.4 °F 54.5 °F 84% 30.03 in 10.0 mi North 4.6 mph - N/A   Overcast
1:13 PM 60.8 °F 55.0 °F 81% 30.03 in 10.0 mi NNE 5.8 mph - N/A   Overcast
1:32 PM 62.1 °F 54.7 °F 77% 30.03 in 10.0 mi ENE 5.8 mph - N/A   Mostly Cloudy
1:53 PM 63.7 °F 54.0 °F 71% 30.01 in 10.0 mi Calm Calm - N/A   Scattered Clouds
2:13 PM 65.8 °F 53.2 °F 64% 30.01 in 10.0 mi Calm Calm - N/A   Scattered Clouds
2:32 PM 66.4 °F 52.3 °F 61% 30.01 in 10.0 mi NW 6.9 mph - N/A   Scattered Clouds
2:53 PM 67.6 °F 50.4 °F 54% 30.01 in 10.0 mi North 3.5 mph - N/A   Scattered Clouds
3:13 PM 69.3 °F 50.7 °F 52% 30.00 in 10.0 mi NNE 5.8 mph - N/A   Scattered Clouds
3:32 PM 68.5 °F 48.9 °F 49% 30.01 in 10.0 mi Calm Calm - N/A   Scattered Clouds
3:53 PM 69.4 °F 48.6 °F 47% 30.01 in 10.0 mi NW 3.5 mph - N/A   Clear
4:13 PM 68.7 °F 48.0 °F 48% 30.02 in 10.0 mi NNW 5.8 mph - N/A   Clear
4:32 PM 68.5 °F 47.3 °F 47% 30.01 in 10.0 mi WNW 6.9 mph - N/A   Scattered Clouds
4:53 PM 68.7 °F 47.1 °F 46% 30.02 in 10.0 mi NNW 4.6 mph - N/A   Scattered Clouds
5:13 PM 69.3 °F 48.2 °F 47% 30.03 in 10.0 mi NNW 4.6 mph - N/A   Scattered Clouds
5:32 PM 69.4 °F 47.1 °F 45% 30.03 in 10.0 mi North 4.6 mph - N/A   Clear
6:13 PM 68.2 °F 46.4 °F 46% 30.04 in 5.0 mi NNW 4.6 mph - N/A   Haze
6:32 PM 67.6 °F 46.8 °F 47% 30.04 in 10.0 mi NNE 4.6 mph - N/A   Clear
6:53 PM 66.4 °F 46.9 °F 50% 30.04 in 10.0 mi North 3.5 mph - N/A   Clear
7:12 PM 65.1 °F 46.8 °F 51% 30.06 in 10.0 mi North 3.5 mph - N/A   Clear
7:33 PM 63.1 °F 46.4 °F 54% 30.06 in 10.0 mi NNE 3.5 mph - N/A   Clear
7:53 PM 60.8 °F 46.6 °F 59% 30.07 in 10.0 mi NNE 3.5 mph - N/A   Clear
8:13 PM 59.2 °F 46.8 °F 63% 30.08 in 10.0 mi Calm Calm - N/A   Clear
8:33 PM 58.1 °F 46.8 °F 66% 30.09 in 10.0 mi Calm Calm - N/A   Clear
8:53 PM 57.7 °F 47.1 °F 68% 30.10 in 10.0 mi Calm Calm - N/A   Clear
9:33 PM 54.5 °F 47.3 °F 77% 30.11 in 10.0 mi Calm Calm - N/A   Clear
9:53 PM 54.7 °F 47.1 °F 76% 30.11 in 10.0 mi ENE 3.5 mph - N/A   Clear
10:12 PM 54.7 °F 46.8 °F 75% 30.12 in 10.0 mi East 4.6 mph - N/A   Scattered Clouds
10:33 PM 54.7 °F 46.9 °F 75% 30.12 in 10.0 mi East 4.6 mph - N/A   Scattered Clouds
10:53 PM 55.0 °F 47.3 °F 75% 30.13 in 10.0 mi East 4.6 mph - N/A   Scattered Clouds
11:12 PM 55.4 °F 46.9 °F 73% 30.13 in 10.0 mi East 5.8 mph - N/A   Mostly Cloudy
11:33 PM 54.7 °F 46.8 °F 75% 30.13 in 10.0 mi ESE 4.6 mph - N/A   Scattered Clouds
11:53 PM 54.3 °F 47.3 °F 77% 30.14 in 10.0 mi ESE 4.6 mph - N/A   Clear